Header for Extended Forecast Station List Page

Search by: ID | Name | Date | Parm | Value | Avg | % Avg
Sort by: ID | Name | Date | Parm | Value | Avg | % Avg

Enter search or view all records.

Click on id for station plot
#IDNameDateParmValueAvg% Avg
0HWRI1BIG LOST-AT HOWELL RANCH NEAR CHILLY09-29-2014DISCHARGE (KAF)172374
1MACI1BIG LOST-MACKAY RESERVOIR NEAR MACKAY09-29-2014INFLOW (KAF)297397
2HALI1BIG WOOD-AT HAILEY09-29-2014DISCHARGE (KAF)294270
3MAGI1BIG WOOD-MAGIC DAM09-29-2014INFLOW (KAF)152754
4BITM8BITTERROOT-NEAR MISSOULA09-29-2014DISCHARGE (KAF)16623272
5BONM8BLACKFOOT-NEAR BONNER09-29-2014DISCHARGE (KAF)12513990
6BIGI1BOISE-AT GLENWOOD BRIDGE09-29-2014DISCHARGE (KAF)6143142
7LUCI1BOISE-LUCKY PEAK DAM09-29-2014INFLOW (KAF)107MM
8PARI1BOISE-NEAR PARMA09-29-2014DISCHARGE (KAF)20021494
9HOTI1BRUNEAU-NEAR HOT SPRINGS09-29-2014DISCHARGE (KAF)2625101
10BULO3BULLY CREEK-BULLY CREEK DAM09-29-2014INFLOW (KAF)1272
11BUDW1BUMPING-BUMPING LAKE DAM09-29-2014INFLOW (KAF)243275
12CHDW1CHELAN-LAKE CHELAN DAM09-29-2014INFLOW (KAF)246155158
13ABOM8CLARK FORK-ABOVE MISSOULA09-29-2014DISCHARGE (KAF)32635492
14DLGM8CLARK FORK-AT DEER LODGE09-29-2014DISCHARGE (KAF)596393
15SRGM8CLARK FORK-AT ST REGIS09-29-2014DISCHARGE (KAF)65076685
16BELM8CLARK FORK-BELOW MISSOULA09-29-2014DISCHARGE (KAF)49159283
17CABI1CLARK FORK-CABINET GORGE DAM09-29-2014INFLOW (KAF)2866352381
18NOXM8CLARK FORK-NOXON RAPIDS DAM09-29-2014INFLOW (KAF)2616338677
19DRMM8CLARK FORK-NR DRUMMOND09-29-2014DISCHARGE (KAF)140MM
20CLUW1CLE ELUM-CLE ELUM LAKE09-29-2014INFLOW (KAF)959699
21ORFI1CLEARWATER-AT OROFINO09-29-2014DISCHARGE (KAF)34659658
22SPDI1CLEARWATER-AT SPALDING09-29-2014DISCHARGE (KAF)802141857
23COEI1COEUR D ALENE-COEUR D ALENE LAKE09-29-2014INFLOW (KAF)27852753
24CIBW1COLUMBIA-AT INTL BOUNDARY09-29-2014DISCHARGE (KAF)16711MM
25BONO3COLUMBIA-BONNEVILLE DAM09-29-2014INFLOW (KAF)27978MM
26CHJW1COLUMBIA-CHIEF JOSEPH DAM09-29-2014INFLOW (KAF)188902020294
27GCDW1COLUMBIA-GRAND COULEE DAM09-29-2014INFLOW (KAF)1749717230102
28JDAO3COLUMBIA-JOHN DAY DAM09-29-2014INFLOW (KAF)266492891992
29MCDW1COLUMBIA-MCNARY DAM09-29-2014INFLOW (KAF)257042814491
30PRWW1COLUMBIA-PRIEST RAPIDS DAM09-29-2014INFLOW (KAF)2003619412103
31RRHW1COLUMBIA-ROCKY REACH DAM09-29-2014INFLOW (KAF)197042107094
32TDAO3COLUMBIA-THE DALLES DAM09-29-2014INFLOW (KAF)273543174586
33WANW1COLUMBIA-WANAPUM DAM09-29-2014INFLOW (KAF)2003719089105
34WELW1COLUMBIA-WELLS DAM09-29-2014INFLOW (KAF)191662055693
35DEDI1DEADWOOD-NEAR LOWMAN09-29-2014INFLOW (KAF)1919103
36MODO3DESCHUTES-AT MOODY NR BIGGS09-29-2014DISCHARGE (KAF)1266129997
37ARDW1ENTIAT-NEAR ARDENVOIR09-29-2014DISCHARGE (KAF)2622120
38CHEI1FALLS-NEAR CHESTER09-29-2014DISCHARGE (KAF)155109142
39CFMM8FLATHEAD-AT COLUMBIA FALLS09-29-2014DISCHARGE (KAF)871120972
40KERM8FLATHEAD-KERR DAM09-29-2014INFLOW (KAF)998149567
41TRYO3GRANDE RONDE-TROY09-29-2014DISCHARGE (KAF)15625661
42REXI1HENRYS FORK-AT REXBURG09-29-2014DISCHARGE (KAF)464425109
43ANTI1HENRYS FORK-AT ST. ANTHONY09-29-2014DISCHARGE (KAF)340335102
44IPDI1HENRYS FORK-ISLAND PARK DAM09-29-2014INFLOW (KAF)10012084
45HODO3HOOD-NEAR TUCKER BRIDGE09-29-2014DISCHARGE (KAF)220192115
46SERO3JOHN DAY-AT SERVICE CK09-29-2014DISCHARGE (KAF)9914768
47KADW1KACHESS-KACHESS DAM09-29-2014INFLOW (KAF)354088
48LAUW1KETTLE-AT LAURIER09-29-2014DISCHARGE (KAF)9412873
49PITW1KLICKITAT-NEAR PITT09-29-2014DISCHARGE (KAF)19923883
50BFEI1KOOTENAI-AT BONNERS FERRY09-29-2014STAGE (FT)MMM
51LEOI1KOOTENAI-AT LEONIA09-29-2014DISCHARGE (KAF)27141674162
52LYDM8KOOTENAI-LIBBY DAM09-29-2014INFLOW (KAF)91098293
53LWRI1LITTLE WOOD-LITTLE WOOD DAM09-29-2014INFLOW (KAF)71546
54BERO3MALHEUR-AGENCY VALLEY DAM09-29-2014INFLOW (KAF)1514110
55VALO3MALHEUR-NEAR VALE09-29-2014DISCHARGE (KAF)122452
56WRMO3MALHEUR-WARM SPRINGS DAM09-29-2014INFLOW (KAF)121580
57MYKO3MCKAY CREEK-NEAR PILOT ROCK09-29-2014DISCHARGE (KAF)101191
58PATW1METHOW-NEAR PATEROS09-29-2014DISCHARGE (KAF)9110091
59WGCM8MF FLATHEAD-NEAR WEST GLACIER09-29-2014DISCHARGE (KAF)11817667
60CLFW1NACHES-NEAR CLIFFDEL09-29-2014DISCHARGE (KAF)689572
61NACW1NACHES-NEAR NACHES09-29-2014DISCHARGE (KAF)15169219
62DWRI1NF CLEARWATER-DWORSHAK DAM09-29-2014INFLOW (KAF)28645163
63FCFM8NF FLATHEAD-NEAR COLUMBIA FALLS09-29-2014DISCHARGE (KAF)17620287
64MONO3NF JOHN DAY-AT MONUMENT09-29-2014DISCHARGE (KAF)497565
65CSDI1NF PAYETTE-CASCADE DAM09-29-2014INFLOW (KAF)779184
66TONW1OKANOGAN-NEAR TONASKET09-29-2014DISCHARGE (KAF)18827968
67OWYO3OWYHEE-BELOW OWYHEE DAM09-29-2014INFLOW (KAF)406958
68EMMI1PAYETTE-NEAR EMMETT09-29-2014DISCHARGE (KAF)23934569
69ALFW1PEND OREILLE-ALBENI FALLS DAM09-29-2014INFLOW (KAF)2971407373
70HOPI1PEND OREILLE-PEND OREILLE LAKE NR HOPE09-29-2014LAKE ELEVATION (FT)MMM
71PIHI1PORTNEUF-AT POCATELLO09-29-2014DISCHARGE (KAF)445777
72PRTI1PRIEST-NEAR PRIEST RIVER09-29-2014DISCHARGE (KAF)22222698
73RCCM8ROCK CREEK-NEAR CLINTON09-29-2014DISCHARGE (KAF)485294
74WHBI1SALMON-AT WHITEBIRD09-29-2014DISCHARGE (KAF)1011109392
75ARAI1SF BOISE-ANDERSON RANCH DAM09-29-2014INFLOW (KAF)717299
76HHWM8SF FLATHEAD-HUNGRY HORSE DAM09-29-2014INFLOW (KAF)15324363
77PLDI1SF SNAKE-PALISADES DAM09-29-2014INFLOW (KAF)748673111
78SIFI1SNAKE-AB EAGLE ROCK NR IDAHO FALLS09-29-2014DISCHARGE (KAF)919825111
79AFRI1SNAKE-AMERICAN FALLS RESERVOIR09-29-2014INFLOW (KAF)14821430104
80SNAI1SNAKE-AT BLACKFOOT09-29-2014DISCHARGE (KAF)801693116
81MILI1SNAKE-AT MILNER09-29-2014DISCHARGE (KAF)11945726
82WEII1SNAKE-AT WEISER09-29-2014DISCHARGE (KAF)2674352176
83SWAI1SNAKE-BELOW SWAN FALLS09-29-2014DISCHARGE (KAF)1898247877
84BRNI1SNAKE-BROWNLEE DAM09-29-2014INFLOW (KAF)2852360379
85IHDW1SNAKE-ICE HARBOR DAM09-29-2014INFLOW (KAF)4766700968
86JLKW4SNAKE-JACKSON LAKE AT DAM09-29-2014INFLOW (KAF)124111112
87LGSW1SNAKE-LITTLE GOOSE DAM09-29-2014INFLOW (KAF)4768704468
88LGDW1SNAKE-LOWER GRANITE DAM09-29-2014INFLOW (KAF)4786699368
89LMNW1SNAKE-LOWER MONUMENTAL DAM09-29-2014INFLOW (KAF)4779708167
90ALPW4SNAKE-NEAR ALPINE09-29-2014DISCHARGE (KAF)463419110
91ANAW1SNAKE-NEAR ANATONE09-29-2014DISCHARGE (KAF)3984539774
92BFTI1SNAKE-NEAR BLACKFOOT09-29-2014DISCHARGE (KAF)823747110
93HEII1SNAKE-NEAR HEISE09-29-2014DISCHARGE (KAF)683669102
94JKSW4SNAKE-NEAR JACKSON09-29-2014DISCHARGE (KAF)355329108
95SHYI1SNAKE-NEAR SHELLEY09-29-2014DISCHARGE (KAF)920795116
96LLKW1SPOKANE-AT LONGLAKE09-29-2014INFLOW (KAF)59397361
97SPOW1SPOKANE-AT SPOKANE09-29-2014DISCHARGE (KAF)420MM
98SJMI1ST JOE-AT ST MARIES09-29-2014STAGE (FT)MMM
99SATI1ST MARIES-NEAR SANTA09-29-2014DISCHARGE (KAF)172664
100STRM8ST. REGIS-NEAR ST. REGIS09-29-2014DISCHARGE (KAF)233566
101TNAW1TEANAWAY-BELOW FORKS09-29-2014DISCHARGE (KAF)203164
102TEAI1TETON-NEAR ST. ANTHONY09-29-2014DISCHARGE (KAF)122112108
103RILW1TIETON-RIMROCK LAKE NEAR RIMROCK09-29-2014INFLOW (KAF)456372
104PDTO3UMATILLA-AT PENDLETON09-29-2014DISCHARGE (KAF)415674
105GIBO3UMATILLA-NEAR GIBBON09-29-2014DISCHARGE (KAF)182667
106UMAO3UMATILLA-NEAR UMATILLA09-29-2014DISCHARGE (KAF)8057141
107TCHW1WALLA WALLA-NEAR TOUCHET09-29-2014DISCHARGE (KAF)738289
108WSRI1WEISER-NEAR WEISER09-29-2014DISCHARGE (KAF)386064
109PESW1WENATCHEE-AT PESHASTIN09-29-2014DISCHARGE (KAF)336281120
110UNDW1WHITE SALMON-NEAR UNDERWOOD09-29-2014DISCHARGE (KAF)216206105
111RIDI1WILLOW CREEK-RIRIE DAM09-29-2014INFLOW (KAF)6881
112EASW1YAKIMA-AT EASTON09-29-2014DISCHARGE (KAF)19562316
113KIOW1YAKIMA-AT KIONA09-29-2014DISCHARGE (KAF)857627137
114UMTW1YAKIMA-AT UMTANUM09-29-2014DISCHARGE (KAF)366250147
115KEDW1YAKIMA-KEECHELUS LAKE09-29-2014INFLOW (KAF)464896
116PARW1YAKIMA-NEAR PARKER09-29-2014DISCHARGE (KAF)582385151